TimeEST,TemperatureF,Dew PointF,Humidity,Sea Level PressureIn,VisibilityMPH,Wind Direction,Wind SpeedMPH,Gust SpeedMPH,PrecipitationIn,Events,Conditions,WindDirDegrees,DateUTC
12:15 AM,49.1,48.0,96,29.73,10.0,ESE,23.0,29.9,N/A,,Overcast,110,2014-02-13 05:15:00
12:35 AM,49.3,48.4,97,29.72,7.0,ESE,19.6,27.6,N/A,,Overcast,110,2014-02-13 05:35:00
12:55 AM,50.5,49.6,97,29.70,7.0,ESE,19.6,25.3,N/A,,Overcast,110,2014-02-13 05:55:00
1:15 AM,51.4,50.9,98,29.66,5.0,ESE,18.4,27.6,N/A,Rain,Light Rain,110,2014-02-13 06:15:00
1:35 AM,51.8,51.3,98,29.64,4.0,SE,16.1,20.7,0.03,Rain,Light Rain,130,2014-02-13 06:35:00
1:55 AM,53.6,53.2,99,29.60,5.0,SE,27.6,38.0,0.07,Rain,Light Rain,130,2014-02-13 06:55:00
2:15 AM,54.3,54.0,99,29.60,5.0,SSE,21.9,28.8,0.02,Rain,Light Rain,150,2014-02-13 07:15:00
2:35 AM,54.5,54.0,98,29.59,7.0,SE,16.1,23.0,0.04,Rain,Light Rain,140,2014-02-13 07:35:00
2:55 AM,55.4,55.2,99,29.56,5.0,SSE,17.3,24.2,0.08,Rain,Rain,150,2014-02-13 07:55:00
3:15 AM,56.3,56.3,100,29.55,7.0,South,17.3,-,0.03,Rain,Rain,180,2014-02-13 08:15:00
3:35 AM,53.6,53.2,99,29.55,5.0,SSW,16.1,24.2,0.07,Rain,Light Rain,200,2014-02-13 08:35:00
3:55 AM,49.5,49.3,99,29.54,1.0,SSW,12.7,-,0.09,Rain,Light Rain,200,2014-02-13 08:55:00
4:15 AM,50.9,50.9,100,29.54,1.8,SSW,13.8,-,0.02,Rain,Rain,210,2014-02-13 09:15:00
4:35 AM,50.4,50.4,100,29.52,1.8,SW,12.7,-,0.03,,Drizzle,220,2014-02-13 09:35:00
4:55 AM,49.5,49.3,99,29.53,10.0,SW,15.0,-,0.05,Rain,Rain,220,2014-02-13 09:55:00
5:15 AM,48.7,48.7,100,29.52,4.0,SW,10.4,-,N/A,,Drizzle,220,2014-02-13 10:15:00
5:35 AM,52.9,52.9,100,29.51,10.0,SSW,11.5,-,0.01,,Overcast,210,2014-02-13 10:35:00
5:55 AM,47.7,47.5,99,29.53,1.5,SW,5.8,-,0.01,Rain,Light Rain,230,2014-02-13 10:55:00
6:15 AM,51.1,51.1,100,29.51,1.8,South,5.8,-,0.01,,Overcast,190,2014-02-13 11:15:00
6:35 AM,52.7,52.7,100,29.51,10.0,SSW,9.2,-,0.01,,Overcast,200,2014-02-13 11:35:00
6:55 AM,51.8,51.6,99,29.50,10.0,SSE,4.6,-,0.01,,Overcast,160,2014-02-13 11:55:00
7:15 AM,50.4,50.4,100,29.49,7.0,Calm,Calm,-,N/A,,Overcast,0,2014-02-13 12:15:00
7:35 AM,48.7,48.7,100,29.48,0.5,Calm,Calm,-,N/A,Fog,Fog,0,2014-02-13 12:35:00
7:55 AM,49.1,49.1,100,29.48,0.8,SSW,3.5,-,N/A,,Overcast,200,2014-02-13 12:55:00
8:15 AM,49.6,49.6,100,29.47,0.8,Calm,Calm,-,N/A,,Overcast,0,2014-02-13 13:15:00
8:35 AM,50.0,50.0,100,29.46,1.5,Calm,Calm,-,N/A,,Overcast,0,2014-02-13 13:35:00
8:55 AM,49.6,49.6,100,29.45,2.0,Calm,Calm,-,N/A,,Overcast,0,2014-02-13 13:55:00
9:15 AM,49.3,49.3,100,29.44,1.5,NNW,5.8,-,N/A,,Overcast,340,2014-02-13 14:15:00
9:35 AM,45.7,45.7,100,29.45,0.5,NW,10.4,-,N/A,Fog,Fog,310,2014-02-13 14:35:00
9:55 AM,44.6,44.6,100,29.44,0.2,NW,9.2,-,N/A,Fog,Fog,320,2014-02-13 14:55:00
10:15 AM,43.0,43.0,100,29.43,0.2,NW,9.2,-,N/A,Fog,Fog,320,2014-02-13 15:15:00
10:35 AM,42.8,42.8,100,29.43,0.2,NW,8.1,-,N/A,Fog,Fog,310,2014-02-13 15:35:00
10:55 AM,42.6,42.6,100,29.43,0.2,NNW,6.9,-,N/A,Fog,Fog,340,2014-02-13 15:55:00
11:15 AM,43.0,43.0,100,29.42,0.2,NW,8.1,-,N/A,Fog,Fog,320,2014-02-13 16:15:00
11:35 AM,43.2,43.2,100,29.39,0.2,NW,8.1,-,N/A,Fog,Fog,320,2014-02-13 16:35:00
11:55 AM,43.9,43.9,100,29.38,0.5,North,6.9,-,N/A,Fog,Fog,350,2014-02-13 16:55:00
12:15 PM,43.2,43.2,100,29.37,0.2,NNW,6.9,-,N/A,Fog,Fog,330,2014-02-13 17:15:00
12:35 PM,43.0,43.0,100,29.35,1.0,NW,5.8,-,N/A,,Overcast,320,2014-02-13 17:35:00
12:55 PM,43.9,43.9,100,29.34,1.0,NNW,5.8,-,N/A,,Overcast,340,2014-02-13 17:55:00
1:15 PM,43.3,43.3,100,29.33,0.5,NNW,3.5,-,N/A,Fog,Fog,330,2014-02-13 18:15:00
1:35 PM,43.0,43.0,100,29.34,0.8,WNW,3.5,-,N/A,Rain,Light Rain,290,2014-02-13 18:35:00
1:55 PM,43.0,43.0,100,29.34,2.5,WNW,4.6,-,N/A,,Overcast,290,2014-02-13 18:55:00
2:35 PM,43.7,43.7,100,29.31,7.0,SSW,3.5,-,N/A,,Overcast,210,2014-02-13 19:35:00
2:55 PM,44.6,44.6,100,29.30,0.8,South,4.6,-,N/A,,Overcast,180,2014-02-13 19:55:00
3:15 PM,44.6,44.6,100,29.29,4.0,SSW,5.8,-,N/A,,Overcast,210,2014-02-13 20:15:00
3:35 PM,44.2,44.2,100,29.29,10.0,West,9.2,-,N/A,,Overcast,270,2014-02-13 20:35:00
3:55 PM,44.6,44.4,99,29.30,3.0,West,13.8,-,N/A,,Overcast,260,2014-02-13 20:55:00
4:15 PM,43.3,42.8,98,29.31,7.0,West,12.7,24.2,N/A,,Overcast,260,2014-02-13 21:15:00
4:35 PM,42.4,41.2,95,29.32,5.0,West,15.0,25.3,N/A,,Overcast,260,2014-02-13 21:35:00
4:55 PM,41.0,40.1,97,29.33,4.0,West,17.3,24.2,N/A,,Overcast,270,2014-02-13 21:55:00
5:15 PM,39.9,37.9,93,29.34,10.0,West,19.6,27.6,N/A,,Overcast,270,2014-02-13 22:15:00
5:35 PM,39.2,37.6,94,29.35,10.0,West,13.8,19.6,N/A,,Overcast,270,2014-02-13 22:35:00
5:55 PM,38.3,36.0,91,29.35,10.0,West,19.6,25.3,N/A,,Overcast,270,2014-02-13 22:55:00
6:15 PM,38.3,35.4,89,29.36,10.0,West,16.1,26.5,N/A,,Overcast,270,2014-02-13 23:15:00
6:35 PM,37.6,35.2,91,29.36,10.0,West,23.0,28.8,N/A,,Overcast,270,2014-02-13 23:35:00
6:55 PM,37.4,34.7,90,29.37,10.0,WSW,18.4,-,N/A,,Overcast,250,2014-02-13 23:55:00
7:15 PM,36.9,33.8,89,29.38,10.0,West,20.7,28.8,N/A,,Overcast,260,2014-02-14 00:15:00
7:35 PM,36.5,33.8,90,29.40,10.0,West,20.7,25.3,N/A,,Overcast,270,2014-02-14 00:35:00
7:55 PM,36.3,33.6,90,29.40,10.0,West,16.1,25.3,N/A,,Overcast,270,2014-02-14 00:55:00
8:15 PM,36.5,33.3,88,29.40,10.0,West,18.4,25.3,N/A,,Overcast,270,2014-02-14 01:15:00
8:35 PM,36.5,33.1,87,29.41,10.0,West,13.8,26.5,N/A,,Overcast,280,2014-02-14 01:35:00
8:55 PM,36.1,33.1,89,29.42,10.0,West,15.0,25.3,N/A,,Overcast,280,2014-02-14 01:55:00
9:15 PM,36.1,33.1,89,29.42,10.0,West,15.0,21.9,N/A,,Overcast,280,2014-02-14 02:15:00
9:35 PM,36.5,32.9,87,29.44,10.0,West,16.1,25.3,N/A,,Overcast,280,2014-02-14 02:35:00
9:55 PM,36.5,32.4,85,29.45,10.0,WNW,13.8,24.2,N/A,,Overcast,300,2014-02-14 02:55:00
10:15 PM,36.5,32.0,84,29.47,10.0,WNW,17.3,29.9,N/A,,Overcast,300,2014-02-14 03:15:00
10:35 PM,36.7,32.4,84,29.49,10.0,WNW,17.3,23.0,N/A,,Overcast,300,2014-02-14 03:35:00
10:55 PM,37.0,32.9,85,29.50,10.0,West,18.4,29.9,N/A,,Overcast,280,2014-02-14 03:55:00
11:15 PM,37.4,33.1,84,29.51,10.0,WNW,13.8,23.0,N/A,,Overcast,290,2014-02-14 04:15:00
11:35 PM,37.8,33.8,86,29.52,10.0,WNW,13.8,23.0,N/A,,Overcast,290,2014-02-14 04:35:00
11:55 PM,38.3,34.0,84,29.53,10.0,West,13.8,20.7,N/A,,Overcast,280,2014-02-14 04:55:00